Location: Splawn
(30.9202°N, 96.9858°W)
Time: 11:24:22
(UTC+00:00)

SR - All Passes

Search period start: 19 February 2020 00:00
Search period end: 29 February 2020 00:00
Orbit: 575 x 881 km, 66.7° (Epoch: 18 February)

Date Brightness Start Highest point End Pass type
(mag) Time Alt. Az. Time Alt. Az. Time Alt. Az.
19 Feb - 07:25:45 10° N 07:30:31 38° ENE 07:34:52 10° SE night (unlit)
19 Feb - 09:08:55 10° WNW 09:12:07 17° WSW 09:15:08 10° SW night (unlit)
19 Feb - 21:48:17 10° SSW 21:54:08 85° ESE 22:00:05 10° NNE daylight
19 Feb - 23:34:01 10° W 23:36:55 14° NW 23:39:48 10° NNW daylight
20 Feb - 06:37:01 10° N 06:40:30 18° NE 06:43:47 10° E night (unlit)
20 Feb - 08:18:06 10° NW 08:22:48 41° WSW 08:27:06 10° S night (unlit)
20 Feb - 20:59:10 10° S 21:04:35 41° ESE 21:10:05 10° NE daylight
20 Feb - 22:41:55 10° WSW 22:46:47 26° WNW 22:51:40 10° N daylight
21 Feb - 07:28:11 10° NNW 07:33:16 81° ENE 07:37:52 10° SSE night (unlit)
21 Feb - 20:11:10 10° SSE 20:15:13 19° ESE 20:19:17 10° ENE daylight
21 Feb - 21:51:11 10° SW 21:56:53 51° WNW 22:02:38 10° NNE daylight
22 Feb - 06:38:51 10° N 06:43:30 35° ENE 06:47:46 10° SE night (unlit)
22 Feb - 08:21:47 10° WNW 08:25:09 19° WSW 08:28:20 10° SSW night (unlit)
22 Feb - 21:01:19 10° SSW 21:07:10 80° ESE 21:13:06 10° NNE daylight
22 Feb - 22:46:44 10° W 22:49:53 15° NW 22:53:02 10° NNW daylight
23 Feb - 05:50:14 10° NNE 05:53:28 17° NE 05:56:33 10° E night (unlit)
23 Feb - 07:31:05 10° NW 07:35:49 44° WSW 07:40:10 10° S night (unlit)
23 Feb - 20:12:18 10° S 20:17:39 38° ESE 20:23:04 10° NE daylight
23 Feb - 21:54:49 10° WSW 21:59:48 28° WNW 22:04:47 10° N daylight
24 Feb - 06:41:14 10° NNW 06:46:17 75° ENE 06:50:50 10° SSE night (unlit)
24 Feb - 19:24:26 10° SE 19:28:17 18° ESE 19:32:09 10° ENE daylight
24 Feb - 21:04:10 10° SW 21:09:54 54° WNW 21:15:42 10° NNE daylight
25 Feb - 05:51:57 10° N 05:56:29 32° ENE 06:00:38 10° ESE night (unlit)
25 Feb - 07:34:41 10° WNW 07:38:11 20° WSW 07:41:31 10° SSW night (unlit)
25 Feb - 20:14:22 10° SSW 20:20:13 75° ESE 20:26:08 10° NNE daylight
25 Feb - 21:59:28 10° W 22:02:52 15° NW 22:06:16 10° NNW daylight
26 Feb - 05:03:27 10° NNE 05:06:26 16° NE 05:09:17 10° E night (unlit)
26 Feb - 06:44:05 10° NW 06:48:51 48° WSW 06:53:12 10° S night (unlit)
26 Feb - 19:25:25 10° S 19:30:42 36° ESE 19:36:02 10° NE daylight
26 Feb - 21:07:43 10° WSW 21:12:48 29° WNW 21:17:53 10° N daylight
27 Feb - 05:54:17 10° NNW 05:59:17 69° ENE 06:03:49 10° SSE night (unlit)
27 Feb - 18:37:43 10° SE 18:41:20 17° ESE 18:44:59 10° ENE daylight
27 Feb - 20:17:09 10° SW 20:22:55 58° WNW 20:28:45 10° NNE daylight
28 Feb - 05:05:03 10° N 05:09:27 30° ENE 05:13:31 10° ESE night (unlit)
28 Feb - 06:47:34 10° WNW 06:51:14 21° WSW 06:54:40 10° SSW night (unlit)
28 Feb - 19:27:26 10° SSW 19:33:16 70° ESE 19:39:08 10° NNE daylight
28 Feb - 21:12:14 10° W 21:15:51 16° NW 21:19:28 10° NNW daylight
